Simultaneous Nadir Overpasses (SNOs) Predictions

Prediction of SNOs between AQUA and NOAA-19 Satellite Orbit:

Table of predicted SNOs for the next 14.0 days since TLE Epoch: 9/4/2015
Index Date (AQUA) Time (AQUA) Lat,Lon (AQUA) SZA (AQUA ) Date (NOAA-19) Time (NOAA-19) Lat,Lon (NOAA-19) SZA (NOAA-19 ) Distance(km) Time Diff (sec)
1 09/05/2015 01:57:29 -80.39, -63.35 104.97 09/05/2015 01:56:54 -80.40, -63.46 104.95 2.03 35
2 09/05/2015 02:46:53 80.31, 105.07 74.90 09/05/2015 02:47:48 80.31, 105.13 74.87 1.32 55
3 09/07/2015 07:31:12 80.34, 33.70 75.75 09/07/2015 07:31:07 80.34, 33.83 75.74 2.47 5
4 09/09/2015 12:15:32 80.41, -38.05 76.67 09/09/2015 12:14:28 80.42, -38.16 76.72 2.29 64
5 09/09/2015 13:04:56 -80.33, 130.42 103.47 09/09/2015 13:05:27 -80.32, 130.58 103.50 2.97 31
6 09/11/2015 17:49:16 -80.40, 58.64 102.53 09/11/2015 17:48:47 -80.39, 58.74 102.53 2.01 29
7 09/11/2015 18:38:40 80.32,-132.99 77.36 09/11/2015 18:39:43 80.32,-132.88 77.32 2.20 63
8 09/13/2015 23:22:59 80.37, 155.47 78.26 09/13/2015 23:23:03 80.38, 155.42 78.27 1.14 4
9 09/16/2015 04:07:17 80.43, 83.86 79.18 09/16/2015 04:06:21 80.42, 84.01 79.18 2.80 56
10 09/16/2015 04:56:42 -80.37,-107.95 100.91 09/16/2015 04:57:21 -80.38,-108.09 100.91 2.78 39
11 09/18/2015 09:41:00 -80.40,-179.29 100.04 09/18/2015 09:40:39 -80.41,-179.38 100.01 2.03 21




NCC Satellite Simultaneous Nadir Overpasses (SNOs) Prediction Service
